• In India
  • List of Countries
  • For 7 days
  • Water Temperature
  • Satellite Maps
  • Weather Map
  • Weather Widgets
  • user-avatar
    Login

    Hourly Weather Canberra

    Today, 21 February, Wednesday

    Time Temperature Precipitation Wind Pressure Humidity
    00:00 +10°C° 0 mm 2 mps 711 mmHg 93%
    01:00 +10°C° 0 mm 2 mps 711 mmHg 93%
    02:00 +11°C° 0 mm 1 mps 711 mmHg 93%
    03:00 +10°C° 0 mm 1 mps 711 mmHg 94%
    04:00 +11°C° 0 mm 1 mps 710 mmHg 92%
    05:00 +11°C° 0 mm 1 mps 711 mmHg 89%
    06:00 +12°C° 0 mm 1 mps 711 mmHg 86%
    07:00 +13°C° 0 mm 1 mps 711 mmHg 83%
    08:00 +16°C° 0 mm 1 mps 711 mmHg 68%
    09:00 +20°C° 0 mm 1 mps 711 mmHg 54%
    10:00 +23°C° 0 mm 2 mps 712 mmHg 40%
    11:00 +25°C° 0 mm 2 mps 711 mmHg 34%
    12:00 +27°C° 0 mm 1 mps 711 mmHg 28%
    13:00 +29°C° 0 mm 1 mps 711 mmHg 23%
    14:00 +29°C° 0 mm 2 mps 710 mmHg 23%
    15:00 +28°C° 0 mm 2 mps 710 mmHg 23%
    16:00 +28°C° 0 mm 2 mps 710 mmHg 24%
    17:00 +26°C° 0 mm 2 mps 710 mmHg 33%
    18:00 +23°C° 0 mm 2 mps 709 mmHg 43%
    19:00 +20°C° 0 mm 2 mps 709 mmHg 53%
    20:00 +18°C° 0 mm 2 mps 710 mmHg 62%
    21:00 +17°C° 0 mm 2 mps 710 mmHg 72%
    22:00 +15°C° 0 mm 2 mps 710 mmHg 82%
    23:00 +15°C° 0 mm 2 mps 710 mmHg 85%

    Tomorrow, 22 February, Thursday

    Time Temperature Precipitation Wind Pressure Humidity
    00:00 +14°C° 0 mm 1 mps 709 mmHg 87%
    01:00 +14°C° 0 mm 1 mps 709 mmHg 90%
    02:00 +14°C° 0 mm 1 mps 709 mmHg 90%
    03:00 +13°C° 0 mm 1 mps 709 mmHg 90%
    04:00 +13°C° 0 mm 1 mps 709 mmHg 90%
    05:00 +14°C° 0 mm 1 mps 709 mmHg 86%
    06:00 +15°C° 0 mm 1 mps 710 mmHg 81%
    07:00 +16°C° 0 mm 1 mps 710 mmHg 76%
    08:00 +20°C° 0 mm 1 mps 710 mmHg 63%
    09:00 +22°C° 0 mm 1 mps 711 mmHg 50%
    10:00 +25°C° 0 mm 1 mps 711 mmHg 37%
    11:00 +26°C° 0 mm 1 mps 711 mmHg 33%
    12:00 +28°C° 0 mm 1 mps 711 mmHg 30%
    13:00 +29°C° 0 mm 1 mps 710 mmHg 26%
    14:00 +29°C° 0 mm 1 mps 710 mmHg 26%
    15:00 +29°C° 0 mm 2 mps 710 mmHg 26%
    16:00 +29°C° 0 mm 2 mps 709 mmHg 26%
    17:00 +27°C° 0 mm 2 mps 709 mmHg 33%
    18:00 +25°C° 0 mm 2 mps 709 mmHg 40%
    19:00 +23°C° 0 mm 2 mps 709 mmHg 47%
    20:00 +20°C° 0 mm 2 mps 709 mmHg 56%
    21:00 +19°C° 0 mm 2 mps 710 mmHg 66%
    22:00 +19°C° 0 mm 1 mps 710 mmHg 75%
    23:00 +18°C° 0 mm 1 mps 710 mmHg 80%

    Day after tomorrow, 23 February, Friday

    Time Temperature Precipitation Wind Pressure Humidity
    00:00 +16°C° 0 mm 1 mps 709 mmHg 84%
    01:00 +15°C° 0 mm 1 mps 709 mmHg 89%
    02:00 +15°C° 0 mm 1 mps 709 mmHg 89%
    03:00 +15°C° 0 mm 1 mps 709 mmHg 89%
    04:00 +14°C° 0 mm 1 mps 708 mmHg 90%
    05:00 +15°C° 0 mm 1 mps 709 mmHg 85%
    06:00 +16°C° 0 mm 1 mps 709 mmHg 79%
    07:00 +16°C° 0 mm 1 mps 710 mmHg 74%
    08:00 +20°C° 0 mm 1 mps 710 mmHg 61%
    09:00 +23°C° 0 mm 2 mps 710 mmHg 48%
    10:00 +26°C° 0 mm 2 mps 710 mmHg 34%
    11:00 +28°C° 0 mm 2 mps 710 mmHg 30%
    12:00 +30°C° 0 mm 2 mps 710 mmHg 25%
    13:00 +31°C° 0 mm 2 mps 709 mmHg 20%
    14:00 +31°C° 0 mm 2 mps 709 mmHg 21%
    15:00 +31°C° 0 mm 2 mps 708 mmHg 21%
    16:00 +31°C° 0 mm 2 mps 708 mmHg 21%
    17:00 +29°C° 0 mm 2 mps 707 mmHg 27%
    18:00 +27°C° 0 mm 2 mps 707 mmHg 34%
    19:00 +25°C° 0 mm 2 mps 707 mmHg 40%
    20:00 +24°C° 0 mm 2 mps 707 mmHg 48%
    21:00 +23°C° 0 mm 2 mps 708 mmHg 56%
    22:00 +21°C° 0 mm 2 mps 708 mmHg 63%
    23:00 +22°C° 0.1 mm 1 mps 707 mmHg 66%

    24 February, Saturday

    Time Temperature Precipitation Wind Pressure Humidity
    00:00 +22°C° 0.1 mm 1 mps 707 mmHg 69%
    01:00 +21°C° 0.1 mm 1 mps 706 mmHg 72%
    02:00 +21°C° 0 mm 1 mps 706 mmHg 73%
    03:00 +21°C° 0 mm 1 mps 706 mmHg 73%
    04:00 +21°C° 0 mm 1 mps 705 mmHg 74%
    05:00 +20°C° 0 mm 2 mps 705 mmHg 70%
    06:00 +21°C° 0 mm 3 mps 705 mmHg 66%
    07:00 +22°C° 0 mm 3 mps 706 mmHg 62%
    08:00 +25°C° 0 mm 4 mps 705 mmHg 59%
    09:00 +27°C° 0 mm 5 mps 705 mmHg 56%
    10:00 +28°C° 0 mm 6 mps 705 mmHg 53%
    11:00 +29°C° 0.2 mm 7 mps 704 mmHg 52%
    12:00 +30°C° 0.2 mm 7 mps 704 mmHg 51%
    13:00 +32°C° 0.2 mm 7 mps 703 mmHg 49%
    14:00 +30°C° 0.5 mm 6 mps 702 mmHg 53%
    15:00 +29°C° 0.5 mm 6 mps 702 mmHg 57%
    16:00 +28°C° 0.5 mm 6 mps 701 mmHg 61%
    17:00 +27°C° 0.7 mm 5 mps 701 mmHg 65%
    18:00 +26°C° 0.7 mm 4 mps 701 mmHg 70%
    19:00 +25°C° 0.7 mm 4 mps 702 mmHg 75%
    20:00 +24°C° 0 mm 3 mps 702 mmHg 77%
    21:00 +22°C° 0 mm 3 mps 702 mmHg 79%
    22:00 +21°C° 0 mm 3 mps 703 mmHg 81%
    23:00 +20°C° 0 mm 2 mps 703 mmHg 83%

    25 February, Sunday

    Time Temperature Precipitation Wind Pressure Humidity
    00:00 +19°C° 0 mm 2 mps 703 mmHg 86%
    01:00 +18°C° 0 mm 2 mps 703 mmHg 88%
    02:00 +17°C° 0 mm 2 mps 703 mmHg 88%
    03:00 +16°C° 0 mm 2 mps 704 mmHg 89%
    04:00 +15°C° 0 mm 2 mps 704 mmHg 89%
    05:00 +15°C° 0 mm 2 mps 704 mmHg 87%
    06:00 +15°C° 0 mm 2 mps 705 mmHg 84%
    07:00 +15°C° 0 mm 1 mps 706 mmHg 82%
    08:00 +19°C° 0 mm 1 mps 706 mmHg 69%
    09:00 +21°C° 0 mm 1 mps 707 mmHg 56%
    10:00 +24°C° 0 mm 1 mps 707 mmHg 43%
    11:00 +26°C° 0 mm 1 mps 707 mmHg 38%
    12:00 +27°C° 0 mm 1 mps 707 mmHg 32%
    13:00 +29°C° 0 mm 1 mps 707 mmHg 27%
    14:00 +29°C° 0 mm 2 mps 707 mmHg 27%
    15:00 +28°C° 0 mm 2 mps 706 mmHg 27%
    16:00 +28°C° 0 mm 2 mps 706 mmHg 27%
    17:00 +25°C° 0 mm 3 mps 706 mmHg 37%
    18:00 +21°C° 0 mm 4 mps 706 mmHg 47%
    19:00 +17°C° 0 mm 4 mps 707 mmHg 57%
    20:00 +15°C° 0 mm 4 mps 707 mmHg 65%
    21:00 +14°C° 0 mm 3 mps 708 mmHg 73%
    22:00 +12°C° 0 mm 3 mps 708 mmHg 81%
    23:00 +12°C° 0 mm 3 mps 708 mmHg 83%

    26 February, Monday

    Time Temperature Precipitation Wind Pressure Humidity
    00:00 +12°C° 0 mm 2 mps 708 mmHg 84%
    01:00 +12°C° 0 mm 2 mps 708 mmHg 86%
    02:00 +12°C° 0 mm 2 mps 708 mmHg 87%
    03:00 +10°C° 0 mm 2 mps 708 mmHg 88%
    04:00 +10°C° 0 mm 2 mps 708 mmHg 89%
    05:00 +12°C° 0 mm 1 mps 709 mmHg 86%
    06:00 +12°C° 0 mm 1 mps 709 mmHg 83%
    07:00 +13°C° 0 mm 1 mps 710 mmHg 80%
    08:00 +16°C° 0 mm 2 mps 710 mmHg 69%
    09:00 +19°C° 0 mm 2 mps 710 mmHg 58%
    10:00 +21°C° 0 mm 2 mps 710 mmHg 47%
    11:00 +24°C° 0 mm 2 mps 710 mmHg 41%
    12:00 +26°C° 0 mm 2 mps 710 mmHg 35%
    13:00 +28°C° 0 mm 1 mps 709 mmHg 29%
    14:00 +28°C° 0 mm 2 mps 709 mmHg 28%
    15:00 +28°C° 0 mm 2 mps 709 mmHg 28%
    16:00 +28°C° 0 mm 2 mps 708 mmHg 28%
    17:00 +26°C° 0 mm 2 mps 708 mmHg 38%
    18:00 +23°C° 0 mm 2 mps 708 mmHg 48%
    19:00 +19°C° 0 mm 2 mps 708 mmHg 58%
    20:00 +18°C° 0 mm 2 mps 708 mmHg 68%
    21:00 +16°C° 0 mm 2 mps 709 mmHg 77%
    22:00 +15°C° 0 mm 2 mps 709 mmHg 87%
    23:00 +14°C° 0 mm 2 mps 709 mmHg 89%
    Show more